Location: Rumah Apan
(2.7833°N, 113.9500°E)
Time: 23:06:16
(UTC+00:00)

ARGOS - Pass Details

Date: 25 July 2021
Orbit: 820 x 835 km, 98.4° (Epoch: 22 September)

Event Time Altitude Azimuth Distance (km) Brightness Sun altitude
Rises 11:14:00 0° 160° (SSE) 3,375 5.9 -9.2°
Reaches altitude 10° 11:16:24 10° 156° (SSE) 2,441 5.2 -9.8°
Maximum altitude 11:21:42 58° 77° (ENE) 968 3.3 -11.0°
Drops below altitude 10° 11:27:00 10° 359° (N) 2,436 5.9 -12.3°
Sets 11:29:23 0° 356° (N) 3,367 6.7 -12.8°
